Find Kondor-FKA No. 2

NORAD ID: 62138 Int'l Des: 2024-223 Owner: NPOMA Country: RU operational
LEOCIRCULARRETROGRADESSO

当前视图

正在加载3D地球...

About Kondor-FKA No. 2

Kondor-FKA No. 2 (NORAD 62138) is a satellite launched Nov 29, 2024 by NPOMA of RU. It operates in LEO, CIRCULAR, RETROGRADE, SSO orbit with a mass of 1050.00 kg.

即将过境

Passes for default location (London). Set your location on the main map for personalized predictions.

高度历史

Loading altitude history...

两行轨道根数

1 62138U 24223A 26195.17473847 .00002192 00000-0 10586-3 0 9994
2 62138 97.4402 38.2322 0001773 90.1329 270.0109 15.19703570 89802
Epoch: Jul 14, 2026 • Age: 4 hours

当前状态

高度 526.6 km
远地点 / 近地点 N/A
速度 7.60 km/s
星下点 -48.69°S, 152.3°E
发射日期 Nov 29, 2024
运行时间 1.6 years
类型 other

技术详情

分类 Payload
质量 1050.00 kg
干质量 1050.00 kg
总质量 1050.00 kg
长度 2.50 m
直径 0.80 m
跨度 5.00 m
形状 Box+2 pan+dish
制造商 NPOMA
平台类型 Kondor
阶段状态 In Orbit
所有者/国家 NPOMA/RU

Most Searched